Tracking 30298 objects as of 27-Apr-2025
HD Live streaming from Space Station
objects crossing your sky now

COSMOS 1275 DEB

Track COSMOS 1275 DEB now!
10-day predictions


NORAD ID: 12952
Int'l Code: 1981-053EG
Perigee: 900.5 km
Apogee: 912.1 km
Inclination: 83.0 °
Period: 103.0 minutes
Semi major axis: 7277 km
RCS: 0.0421 m2 (small)
Launch date: June 4, 1981
Source: Commonwealth of Independent States (former USSR) (CIS)
Launch site: PLESETSK MISSILE AND SPACE COMPLEX (PKMTR)

Note: This is SATELLITE DEBRIS
Your satellite tracking list
Your tracking list is empty




NASA's NSSDC Master Catalog

Two Line Element Set (TLE):
1 12952U 81053EG  25116.97559581  .00001690  00000-0  11705-2 0  9992
2 12952  82.9577 293.3829 0007988 266.9108 260.0573 13.98446802204632
Source of the keplerian elements: AFSPC